Terug naar catalogus

ONEWEB-0213

ActiefCommunicatiePO
NORAD 48790·PAYLOAD·🇬🇧 United Kingdom

Gelanceerd May 28, 2021 vanaf Vostochny Cosmodrome

Loading…

Volgende Passages (komende 24 uur)

TLE

VersSource: CelesTrak SupGP

Epoch: Sep 15, 2026, 01:31 UTC

1 48790C 21045Z   26258.06337222 -.00004291  00000+0 -11412-1 0  2583
2 48790  87.8986 241.2784 0002181  79.5596 312.7162 13.15551216    10

Volg ONEWEB-0213 in realtime met AllMySat

Download on the App Store